Location: Lucerne Valley
(34.4439°N, 116.9669°E)
Time: 00:36:45
(UTC-07:00)

Tiangong 1 - Pass Details

Date: 09 October 2017
Orbit: 294 x 320 km, 42.8° (Epoch: 17 October)

Event Time Altitude Azimuth Distance (km) Brightness Sun altitude
Rises 04:06:27 0° 294° (WNW) 2,031 6.1 -17.4°
Reaches altitude 10° 04:09:05 10° 322° (NW) 1,196 4.1 -18.0°
Maximum altitude 04:10:35 14° 357° (N) 1,004 3.2 -18.3°
Enters shadow 04:10:41 14° 359° (N) 1,004 3.2 -18.3°
